Regional Weather Roundup
Issued by NWS Upton, NY

Current Version | Previous Version | Text Only | Print | Product List | Glossary Off
Versions: 1 2 3 4 5 6 7 8 9 10 11 12 13 14 15 16 17 18 19 20 21 22 23 24 25 26 27 28 29 30 31 32 33 34 35 36 37 38 39 40 41 42 43 44 45 46 47 48 49 50
000 ASUS41 KOKX 042204 RWROKX REGIONAL WEATHER ROUNDUP NATIONAL WEATHER SERVICE NEW YORK NY 600 PM EDT WED MAY 04 2016 NOTE: "FAIR" INDICATES FEW OR NO CLOUDS BELOW 12,000 FEET WITH NO SIGNIFICANT WEATHER AND/OR OBSTRUCTIONS TO VISIBILITY. NYZ071-072-176-178-NJZ106-104-042300- NEW YORK CITY METRO AREA CITY SKY/WX TMP DP RH WIND PRES REMARKS CENTRAL PARK CLOUDY 50 46 86 E13 29.74S LAGUARDIA APRT DRIZZLE 51 49 92 E13 29.72F KENNEDY INTL LGT RAIN 51 46 83 NE13G21 29.72F NEWARK/LIBERTY CLOUDY 51 46 83 NE9 29.73R BRNX BOT. GARD N/A 48 46 93 CALM 29.72F TETERBORO LGT RAIN 51 46 83 VRB3 29.71S FOG $$ NYZ177-179-078>081-042300- LONG ISLAND NEW YORK CITY SKY/WX TMP DP RH WIND PRES REMARKS FARMINGDALE CLOUDY 50 47 89 NE10 29.70F ISLIP LGT RAIN 48 45 89 N14 29.69F SHIRLEY LGT RAIN 48 46 93 VRB6 29.71F RIVERHEAD N/A 48 46 93 E10 29.72F WESTHAMPTON RAIN 44 44 100 NE9 29.74F FOG EAST HAMPTON HVY RAIN 46 44 91 N10 29.75R MONTAUK POINT N/A 47 44 90 NE13G22 29.76R $$ NYZ052-065-067-042300- HUDSON VALLEY CITY SKY/WX TMP DP RH WIND PRES REMARKS WHITE PLAINS LGT RAIN 50 46 86 NE6 29.72R FOG NEWBURGH CLOUDY 48 48 100 NE9 29.75S FOG MONTGOMERY CLOUDY 49 47 93 NE13 29.75R FOG POUGHKEEPSIE CLOUDY 51 47 86 NE10 29.75S FOG ALBANY LGT RAIN 50 46 86 N5 29.80S $$ NJZ001-105-106-008-010-013-015-019>022-104-042300- NEW JERSEY CITY SKY/WX TMP DP RH WIND PRES REMARKS NEWARK/LIBERTY CLOUDY 51 46 83 NE9 29.73R TETERBORO LGT RAIN 51 46 83 VRB3 29.71S FOG CALDWELL CLOUDY 50 31 48 N3 29.74R MORRISTOWN CLOUDY 50 46 87 E7 29.74R SOMERVILLE CLOUDY 52 44 74 E6 29.72R SUSSEX CLOUDY 49 46 90 N14 29.74S FOG ANDOVER N/A 50 47 89 NE5 29.73R TRENTON CLOUDY 50 47 89 NE9 29.71R FOG MILLVILLE CLOUDY 51 46 83 NE10 29.68R ATLANTIC CITY CLOUDY 50 46 86 NE18 29.68S WRIGHTSTOWN CLOUDY 50 46 87 NE13 29.69S TOMS RIVER CLOUDY 48 45 87 NE14 29.72R BELMAR CLOUDY 49 47 93 NE10G16 29.73R $$ PAZ047>061-062-071-042300- EASTERN PENNSYLVANIA CITY SKY/WX TMP DP RH WIND PRES REMARKS PHILADELPHIA CLOUDY 53 45 74 E12 29.71R ALLENTOWN CLOUDY 52 46 80 NE8 29.71S SCRANTON CLOUDY 50 46 86 E8 29.71R $$ CTZ002-004>006-009-010-012-RIZ004-006-007-MAZ004-011-015-042300- SOUTHERN NEW ENGLAND IN CT CITY SKY/WX TMP DP RH WIND PRES REMARKS BRADLEY INTL LGT RAIN 50 40 68 NE10 29.77F HARTFORD CLOUDY 52 41 66 E9 29.76F DANBURY LGT RAIN 49 44 83 NE12 29.74F WTRBRY/OXFORD CLOUDY 48 39 71 E9G17 29.75S BRIDGEPORT LGT RAIN 51 46 83 NE10 29.74R MERIDEN LGT RAIN 50 42 74 CALM 29.76S NEW HAVEN LGT RAIN 50 45 83 NE7 29.74S CHESTER RAIN 46 45 93 NE9 29.75R GROTON CLOUDY 48 47 96 NE14 29.75R WILLIMANTIC CLOUDY 49 40 71 NE15 29.77S IN RI CITY SKY/WX TMP DP RH WIND PRES REMARKS PROVIDENCE LGT RAIN 45 41 86 NE16 29.78S BLOCK ISLAND LGT RAIN 45 43 93 NE17G29 29.74S WESTERLY LGT RAIN 48 41 76 NE9 29.76R IN MA CITY SKY/WX TMP DP RH WIND PRES REMARKS BOSTON RAIN 44 40 85 NE21G28 29.81F FOG WORCESTER CLOUDY 43 39 86 NE10G23 29.79R WESTFIELD CLOUDY 47 43 86 N10 29.78F PROVINCETOWN RAIN 43 42 97 NE17G23 29.80F FOG NANTUCKET LGT RAIN 47 44 90 N20G26 29.72R FOG $$ ANZ330-335-338-340-345-350-353-355-042300- COASTAL MARINE OBSERVATIONS STATION/POSITION TIME SKY/WX TEMP WIND PRES VSBY WAVE AIR SEA DIR/SP/G HT/PER (UTC) (F) (DEG/KT/KT) (MB) (MI) (FT/S) NY HARB ENTRANCE 2050 48 50 60/ 19/ 23 1004.6 6/ 6 20S FIRE ISLAND 2050 47 48 50/ 21/ 25 1005.2 7/ 6 GREAT SOUTH BAY 2100 49 55 50/ 19/ 21 N/A 23 SSW MONTAUK P 2150 46 46 20/ 19/ 27 1006.0 8/ 6 15 E BARNEGAT LI 2122 50 N/A 7/ 7 HUDSON CANYON 2050 49 48 1002.0 7/ 7 KINGS POINT 2100 49 54 1006.4 EXECUTION ROCKS NOT AVBL CENTRAL LI SOUND NOT AVBL EASTERN LI SOUND 2100 50 48 30/ 14/ 17 N/A ROBBINS REEF 2100 51 60/ 10/ 13 1005.7 $$ >>>>>>>>>>>>>>>>>>>>>>>>>>>> KEY <<<<<<<<<<<<<<<<<<<<<<<<<<< > < > SKY/WX - SKY CONDITION/PRESENT WEATHER < > TMP - TEMPERATURE IN FAHRENHEIT < > DP - DEWPOINT IN FAHRENHEIT < > RH - RELATIVE HUMIDITY IN PERCENT < > WIND - DIRECTION AND SPEED IN MPH < > PRES - MEAN SEA LEVEL PRESSURE IN INCHES OF HG < > WCI - WIND CHILL INDEX < > VSB - VISIBILITY IN MILES < > HX - HEAT INDEX < > TC - TEMPERATURE IN CELSIUS < > VRB - VARIABLE WIND DIRECTION < > < >>>>>>>>>>>>>>>>>>>>>>>>>>>> KEY <<<<<<<<<<<<<<<<<<<<<<<<<<<

USA.gov is the U.S. government's official web portal to all federal, state and local government web resources and services.